| time (UTC) | temp F | wind direction | speed MPH | gust MPH | rain 1hr in | rain 24hr in | rain mn in | humidity % | barometer mb |
| 20260507134012 | 0 | 0.0 | 0.0 | 0.00 | 0.01 | 0.01 | 1017.9 | ||
| 20260507133513 | 0 | 0.0 | 0.0 | 0.00 | 0.01 | 0.01 | 1017.6 | ||
| 20260507133002 | 58 | 0.0 | 0.0 | 0.00 | 0.01 | 0.01 | 90 | 1017.4 | |
| 20260507132504 | 58 | 158 | 0.0 | 4.0 | 0.00 | 0.01 | 0.01 | 90 | 1017.5 |
| 20260507132002 | 58 | 42 | 0.0 | 3.0 | 0.00 | 0.01 | 0.01 | 90 | 1017.5 |
| 20260507131502 | 58 | 33 | 0.0 | 3.0 | 0.00 | 0.01 | 0.01 | 90 | 1017.4 |
| 20260507131005 | 58 | 265 | 0.0 | 2.0 | 0.00 | 0.01 | 0.01 | 90 | 1017.5 |
| 20260507124504 | 57 | 76 | 0.0 | 2.0 | 0.00 | 0.01 | 0.01 | 90 | 1017.0 |
| 20260507124003 | 57 | 36 | 0.0 | 3.0 | 0.00 | 0.01 | 0.01 | 90 | 1016.7 |
| 20260507123505 | 57 | 59 | 0.0 | 3.0 | 0.00 | 0.01 | 0.01 | 90 | 1016.5 |
| 20260507123003 | 57 | 254 | 0.0 | 3.0 | 0.00 | 0.01 | 0.01 | 90 | 1016.5 |
| 20260507122501 | 57 | 55 | 0.0 | 3.0 | 0.00 | 0.01 | 0.01 | 90 | 1016.8 |
| 20260507122001 | 57 | 343 | 0.0 | 3.0 | 0.00 | 0.01 | 0.01 | 90 | 1016.7 |
| 20260507121506 | 57 | 348 | 0.0 | 3.0 | 0.00 | 0.01 | 0.01 | 90 | 1016.8 |
| 20260507121005 | 57 | 55 | 0.0 | 4.0 | 0.00 | 0.01 | 0.01 | 90 | 1016.6 |
| 20260507120503 | 57 | 55 | 0.0 | 4.0 | 0.00 | 0.01 | 0.01 | 90 | 1016.5 |
| 20260507120012 | 57 | 217 | 0.0 | 2.0 | 0.00 | 0.01 | 0.01 | 90 | 1016.7 |
| 20260507115502 | 57 | 309 | 0.0 | 2.0 | 0.00 | 0.01 | 0.01 | 90 | 1016.4 |
| 20260507115004 | 57 | 10 | 0.0 | 2.0 | 0.00 | 0.01 | 0.01 | 90 | 1016.4 |
| 20260507114003 | 57 | 0.0 | 0.0 | 0.00 | 0.01 | 0.01 | 90 | 1016.4 | |
| 20260507113005 | 57 | 54 | 0.0 | 1.0 | 0.00 | 0.01 | 0.01 | 90 | 1016.1 |
| 20260507112506 | 58 | 31 | 0.0 | 3.0 | 0.00 | 0.01 | 0.01 | 90 | 1015.9 |
| 20260507112004 | 58 | 345 | 0.0 | 3.0 | 0.00 | 0.01 | 0.01 | 90 | 1016.0 |
| 20260507111506 | 58 | 32 | 1.0 | 3.0 | 0.00 | 0.01 | 0.01 | 90 | 1015.7 |
| 20260507111002 | 58 | 68 | 0.0 | 3.0 | 0.00 | 0.01 | 0.01 | 90 | 1015.9 |
| 20260507110502 | 58 | 203 | 0.0 | 3.0 | 0.00 | 0.01 | 0.01 | 90 | 1016.0 |
| 20260507110003 | 58 | 251 | 0.0 | 2.0 | 0.00 | 0.01 | 0.01 | 90 | 1016.0 |
| 20260507105502 | 58 | 86 | 0.0 | 2.0 | 0.00 | 0.01 | 0.01 | 90 | 1015.8 |
| 20260507105002 | 58 | 234 | 0.0 | 2.0 | 0.00 | 0.01 | 0.01 | 90 | 1015.9 |
| 20260507104505 | 58 | 348 | 0.0 | 2.0 | 0.00 | 0.01 | 0.01 | 90 | 1015.3 |
| 20260507104003 | 58 | 53 | 0.0 | 2.0 | 0.00 | 0.01 | 0.01 | 90 | 1015.0 |
| 20260507103503 | 58 | 37 | 0.0 | 2.0 | 0.00 | 0.01 | 0.01 | 90 | 1014.7 |
| 20260507103005 | 58 | 290 | 0.0 | 2.0 | 0.00 | 0.01 | 0.01 | 90 | 1014.8 |
| 20260507102505 | 58 | 20 | 0.0 | 2.0 | 0.00 | 0.01 | 0.01 | 90 | 1014.7 |
| 20260507102003 | 58 | 347 | 0.0 | 2.0 | 0.00 | 0.01 | 0.01 | 90 | 1014.7 |
| 20260507101504 | 58 | 331 | 0.0 | 3.0 | 0.00 | 0.01 | 0.01 | 90 | 1014.6 |
| 20260507101004 | 58 | 17 | 1.0 | 3.0 | 0.00 | 0.01 | 0.01 | 90 | 1014.3 |
| 20260507100503 | 58 | 90 | 0.0 | 4.0 | 0.00 | 0.01 | 0.01 | 90 | 1014.3 |
| 20260507100008 | 58 | 62 | 1.0 | 4.0 | 0.00 | 0.01 | 0.01 | 90 | 1014.5 |
| 20260507095503 | 58 | 348 | 1.0 | 4.0 | 0.00 | 0.01 | 0.01 | 90 | 1014.4 |
| 20260507095003 | 58 | 62 | 1.0 | 4.0 | 0.00 | 0.01 | 0.01 | 90 | 1014.6 |
| 20260507094506 | 58 | 38 | 1.0 | 4.0 | 0.00 | 0.01 | 0.01 | 90 | 1015.0 |
| 20260507094005 | 58 | 46 | 0.0 | 4.0 | 0.00 | 0.01 | 0.01 | 90 | 1015.0 |
| 20260507093502 | 58 | 223 | 0.0 | 3.0 | 0.00 | 0.01 | 0.01 | 90 | 1015.0 |
| 20260507093008 | 58 | 202 | 0.0 | 2.0 | 0.00 | 0.01 | 0.01 | 90 | 1015.3 |
| 20260507092505 | 58 | 59 | 0.0 | 2.0 | 0.00 | 0.01 | 0.01 | 90 | 1015.2 |
| 20260507092003 | 59 | 190 | 0.0 | 5.0 | 0.00 | 0.01 | 0.01 | 90 | 1015.2 |
| 20260507091508 | 59 | 49 | 0.0 | 5.0 | 0.00 | 0.01 | 0.01 | 90 | 1014.8 |
| 20260507091003 | 59 | 116 | 2.0 | 5.0 | 0.01 | 0.01 | 0.01 | 90 | 1014.4 |
| 20260507090505 | 59 | 57 | 1.0 | 4.0 | 0.01 | 0.01 | 0.01 | 89 | 1014.6 |
| 20260507090006 | 59 | 102 | 0.0 | 3.0 | 0.01 | 0.01 | 0.01 | 89 | 1014.7 |
| 20260507085504 | 59 | 19 | 0.0 | 3.0 | 0.01 | 0.01 | 0.01 | 89 | 1014.7 |
| 20260507085004 | 59 | 348 | 0.0 | 3.0 | 0.01 | 0.01 | 0.01 | 89 | 1014.8 |
| 20260507084516 | 59 | 39 | 0.0 | 2.0 | 0.01 | 0.01 | 0.01 | 89 | 1014.9 |
| 20260507084007 | 59 | 53 | 0.0 | 6.0 | 0.01 | 0.01 | 0.01 | 89 | 1015.0 |
| 20260507083506 | 60 | 48 | 1.0 | 5.0 | 0.01 | 0.01 | 0.01 | 89 | 1015.0 |
| 20260507083019 | 60 | 44 | 0.0 | 3.0 | 0.01 | 0.01 | 0.01 | 89 | 1015.0 |
| 20260507082503 | 60 | 264 | 0.0 | 4.0 | 0.01 | 0.01 | 0.01 | 89 | 1015.2 |
| 20260507082003 | 60 | 22 | 1.0 | 6.0 | 0.01 | 0.01 | 0.01 | 89 | 1015.2 |
| 20260507081507 | 60 | 36 | 2.0 | 6.0 | 0.01 | 0.01 | 0.01 | 89 | 1014.9 |
| 20260507081005 | 60 | 96 | 0.0 | 4.0 | 0.00 | 0.00 | 0.00 | 88 | 1014.9 |
| 20260507080505 | 60 | 82 | 0.0 | 2.0 | 0.00 | 0.00 | 0.00 | 88 | 1015.0 |
| 20260507080011 | 60 | 60 | 0.0 | 2.0 | 0.00 | 0.00 | 0.00 | 88 | 1015.2 |
| 20260507075508 | 60 | 169 | 0.0 | 2.0 | 0.00 | 0.00 | 0.00 | 89 | 1015.1 |
| 20260507075003 | 61 | 75 | 0.0 | 3.0 | 0.00 | 0.00 | 0.00 | 89 | 1015.2 |
| 20260507074506 | 61 | 101 | 0.0 | 5.0 | 0.00 | 0.00 | 0.00 | 89 | 1015.0 |
| 20260507074004 | 61 | 26 | 0.0 | 5.0 | 0.00 | 0.00 | 0.00 | 88 | 1014.9 |
| 20260507073506 | 61 | 19 | 1.0 | 5.0 | 0.00 | 0.00 | 0.00 | 88 | 1015.1 |
| 20260507073009 | 61 | 18 | 0.0 | 5.0 | 0.00 | 0.00 | 0.00 | 88 | 1015.3 |
| 20260507072509 | 61 | 65 | 0.0 | 5.0 | 0.00 | 0.00 | 0.00 | 88 | 1015.3 |
| 20260507072006 | 61 | 78 | 0.0 | 5.0 | 0.00 | 0.00 | 0.00 | 88 | 1015.0 |
| 20260507071519 | 61 | 290 | 0.0 | 3.0 | 0.00 | 0.00 | 0.00 | 88 | 1014.9 |
| 20260507071005 | 61 | 12 | 0.0 | 4.0 | 0.00 | 0.00 | 0.00 | 88 | 1014.7 |
| 20260507070507 | 61 | 14 | 0.0 | 4.0 | 0.00 | 0.00 | 0.00 | 88 | 1014.7 |
| 20260507070019 | 61 | 15 | 1.0 | 4.0 | 0.00 | 0.00 | 0.00 | 88 | 1014.8 |
| 20260507065508 | 61 | 11 | 1.0 | 4.0 | 0.00 | 0.00 | 0.00 | 88 | 1014.5 |
| 20260507065008 | 62 | 19 | 2.0 | 4.0 | 0.00 | 0.00 | 0.00 | 87 | 1014.3 |
| 20260507064007 | 62 | 17 | 0.0 | 5.0 | 0.00 | 0.01 | 0.00 | 87 | 1014.9 |
| 20260507063508 | 62 | 39 | 1.0 | 5.0 | 0.00 | 0.01 | 0.00 | 87 | 1014.9 |
| 20260507063007 | 62 | 17 | 0.0 | 5.0 | 0.00 | 0.01 | 0.00 | 87 | 1014.9 |
| 20260507062505 | 62 | 11 | 1.0 | 5.0 | 0.00 | 0.01 | 0.00 | 87 | 1015.0 |
| 20260507062007 | 63 | 42 | 0.0 | 4.0 | 0.00 | 0.01 | 0.00 | 87 | 1014.8 |
| 20260507061514 | 63 | 11 | 0.0 | 3.0 | 0.00 | 0.01 | 0.00 | 87 | 1014.6 |
| 20260507061012 | 63 | 11 | 0.0 | 3.0 | 0.00 | 0.01 | 0.00 | 87 | 1014.5 |
| 20260507060505 | 63 | 12 | 0.0 | 3.0 | 0.00 | 0.01 | 0.00 | 86 | 1014.7 |
| 20260507060022 | 63 | 20 | 0.0 | 4.0 | 0.00 | 0.01 | 0.00 | 86 | 1014.6 |
| 20260507055508 | 63 | 12 | 0.0 | 5.0 | 0.00 | 0.01 | 0.00 | 86 | 1014.9 |
| 20260507055007 | 63 | 17 | 0.0 | 5.0 | 0.00 | 0.01 | 0.00 | 86 | 1014.9 |
| 20260507054518 | 64 | 5 | 0.0 | 3.0 | 0.00 | 0.01 | 0.00 | 86 | 1015.0 |
| 20260507054008 | 64 | 15 | 0.0 | 4.0 | 0.00 | 0.01 | 0.00 | 86 | 1015.0 |
| 20260507053511 | 64 | 35 | 0.0 | 4.0 | 0.00 | 0.01 | 0.00 | 86 | 1015.0 |
| 20260507053019 | 64 | 49 | 0.0 | 2.0 | 0.00 | 0.01 | 0.00 | 86 | 1014.7 |
| 20260507052506 | 64 | 11 | 0.0 | 3.0 | 0.00 | 0.01 | 0.00 | 86 | 1014.7 |
| 20260507051519 | 65 | 26 | 0.0 | 2.0 | 0.00 | 0.01 | 0.00 | 86 | 1014.7 |
| 20260507051008 | 65 | 39 | 0.0 | 3.0 | 0.00 | 0.01 | 0.00 | 86 | 1014.5 |
| 20260507050036 | 65 | 25 | 0.0 | 4.0 | 0.00 | 0.01 | 0.00 | 86 | 1014.0 |
| 20260507045508 | 65 | 12 | 1.0 | 4.0 | 0.00 | 0.01 | 0.01 | 86 | 1014.0 |
| 20260507045007 | 66 | 13 | 0.0 | 2.0 | 0.00 | 0.01 | 0.01 | 86 | 1014.2 |
| 20260507044523 | 66 | 13 | 0.0 | 2.0 | 0.00 | 0.01 | 0.01 | 86 | 1014.3 |
| 20260507044007 | 66 | 13 | 0.0 | 4.0 | 0.00 | 0.01 | 0.01 | 86 | 1014.4 |
| 20260507043507 | 66 | 9 | 0.0 | 4.0 | 0.00 | 0.01 | 0.01 | 86 | 1014.5 |
| 20260507043004 | 66 | 17 | 0.0 | 4.0 | 0.00 | 0.01 | 0.01 | 86 | 1014.4 |
| 20260507042503 | 67 | 11 | 0.0 | 4.0 | 0.00 | 0.01 | 0.01 | 86 | 1014.2 |
| 20260507042003 | 67 | 26 | 1.0 | 4.0 | 0.00 | 0.01 | 0.01 | 86 | 1014.2 |
| 20260507041508 | 67 | 18 | 0.0 | 4.0 | 0.00 | 0.01 | 0.01 | 87 | 1014.1 |
| 20260507041004 | 67 | 13 | 0.0 | 2.0 | 0.00 | 0.01 | 0.01 | 87 | 1014.1 |
| 20260507040504 | 68 | 5 | 0.0 | 5.0 | 0.00 | 0.01 | 0.01 | 87 | 1014.1 |
| 20260507040016 | 68 | 11 | 1.0 | 5.0 | 0.00 | 0.01 | 0.01 | 87 | 1014.0 |
| 20260507035506 | 68 | 13 | 0.0 | 4.0 | 0.00 | 0.01 | 0.01 | 87 | 1013.9 |
| 20260507035011 | 68 | 11 | 0.0 | 3.0 | 0.00 | 0.01 | 0.01 | 87 | 1013.6 |
| 20260507034516 | 68 | 13 | 0.0 | 3.0 | 0.00 | 0.01 | 0.01 | 87 | 1013.6 |
| 20260507034010 | 69 | 10 | 0.0 | 2.0 | 0.00 | 0.01 | 0.01 | 87 | 1013.7 |
| 20260507033503 | 69 | 16 | 0.0 | 2.0 | 0.00 | 0.01 | 0.01 | 87 | 1013.5 |
| 20260507033004 | 69 | 15 | 0.0 | 3.0 | 0.00 | 0.01 | 0.01 | 87 | 1013.4 |
| 20260507032504 | 69 | 360 | 1.0 | 7.0 | 0.00 | 0.01 | 0.01 | 87 | 1013.5 |
| 20260507032003 | 69 | 360 | 1.0 | 7.0 | 0.00 | 0.01 | 0.01 | 87 | 1013.3 |
| 20260507031508 | 70 | 20 | 0.0 | 4.0 | 0.00 | 0.01 | 0.01 | 87 | 1013.2 |
| 20260507031004 | 70 | 11 | 0.0 | 3.0 | 0.00 | 0.01 | 0.01 | 87 | 1013.1 |
| 20260507030504 | 70 | 10 | 0.0 | 4.0 | 0.00 | 0.01 | 0.01 | 87 | 1013.1 |
| 20260507030014 | 70 | 11 | 0.0 | 4.0 | 0.00 | 0.01 | 0.01 | 87 | 1013.1 |
| 20260507025503 | 70 | 13 | 0.0 | 4.0 | 0.00 | 0.01 | 0.01 | 87 | 1012.9 |
| 20260507025008 | 70 | 10 | 0.0 | 3.0 | 0.00 | 0.01 | 0.01 | 87 | 1012.8 |
| 20260507024518 | 70 | 10 | 0.0 | 3.0 | 0.00 | 0.01 | 0.01 | 87 | 1012.7 |
| 20260507024007 | 70 | 10 | 1.0 | 3.0 | 0.00 | 0.01 | 0.01 | 87 | 1012.5 |
| 20260507023506 | 71 | 13 | 0.0 | 3.0 | 0.00 | 0.01 | 0.01 | 87 | 1012.4 |
| 20260507023017 | 71 | 18 | 0.0 | 3.0 | 0.00 | 0.01 | 0.01 | 87 | 1012.3 |
| 20260507022507 | 71 | 11 | 0.0 | 2.0 | 0.00 | 0.01 | 0.01 | 86 | 1012.4 |
| 20260507022007 | 71 | 19 | 0.0 | 3.0 | 0.00 | 0.01 | 0.01 | 86 | 1012.3 |
| 20260507021512 | 71 | 9 | 0.0 | 3.0 | 0.00 | 0.01 | 0.01 | 86 | 1012.2 |
| 20260507021004 | 71 | 20 | 0.0 | 5.0 | 0.00 | 0.01 | 0.01 | 86 | 1012.2 |
| 20260507020504 | 72 | 12 | 0.0 | 5.0 | 0.00 | 0.01 | 0.01 | 86 | 1012.1 |
| 20260507020014 | 72 | 29 | 0.0 | 2.0 | 0.00 | 0.01 | 0.01 | 86 | 1012.1 |
| 20260507015506 | 72 | 0.0 | 3.0 | 0.00 | 0.01 | 0.01 | 85 | 1011.9 | |
| 20260507015006 | 72 | 32 | 0.0 | 3.0 | 0.00 | 0.01 | 0.01 | 85 | 1011.9 |
| 20260507014520 | 72 | 33 | 0.0 | 3.0 | 0.00 | 0.01 | 0.01 | 85 | 1011.8 |
| 20260507014010 | 73 | 28 | 0.0 | 3.0 | 0.00 | 0.01 | 0.01 | 84 | 1011.8 |
| 20260507013508 | 73 | 11 | 0.0 | 4.0 | 0.00 | 0.01 | 0.01 | 84 | 1011.8 |
| 20260507013019 | 73 | 360 | 1.0 | 4.0 | 0.00 | 0.01 | 0.01 | 84 | 1011.5 |
| 20260507012512 | 74 | 360 | 0.0 | 4.0 | 0.00 | 0.01 | 0.01 | 83 | 1011.4 |
| 20260507012008 | 74 | 9 | 2.0 | 4.0 | 0.00 | 0.01 | 0.01 | 83 | 1011.1 |
| 20260507011529 | 75 | 11 | 0.0 | 3.0 | 0.00 | 0.01 | 0.01 | 82 | 1011.1 |
| 20260507011008 | 75 | 19 | 0.0 | 3.0 | 0.00 | 0.01 | 0.01 | 82 | 1011.1 |
| 20260507010513 | 75 | 16 | 0.0 | 5.0 | 0.00 | 0.01 | 0.01 | 81 | 1010.8 |
| 20260507010008 | 76 | 19 | 0.0 | 5.0 | 0.00 | 0.01 | 0.01 | 81 | 1010.8 |
| 20260507005506 | 77 | 360 | 1.0 | 3.0 | 0.00 | 0.01 | 0.01 | 80 | 1010.7 |
| 20260507005007 | 77 | 14 | 0.0 | 3.0 | 0.00 | 0.01 | 0.01 | 80 | 1010.7 |
| 20260507004513 | 78 | 24 | 1.0 | 3.0 | 0.00 | 0.01 | 0.01 | 80 | 1010.6 |
| 20260507004005 | 79 | 24 | 0.0 | 4.0 | 0.00 | 0.01 | 0.01 | 80 | 1010.4 |
| 20260507003507 | 80 | 9 | 1.0 | 0.0 | 0.00 | 0.01 | 0.01 | 81 | 1010.2 |
| 20260507001008 | 0 | 0.0 | 0.0 | 0.00 | 0.01 | 0.01 | 1009.8 | ||
| 20260507000512 | 0 | 0.0 | 0.0 | 0.00 | 0.01 | 0.01 | 1009.8 | ||
| 20260507000032 | 0 | 0.0 | 0.0 | 0.00 | 0.01 | 0.01 | 1009.9 | ||
| 20260506235509 | 0 | 0.0 | 0.0 | 0.00 | 0.01 | 0.01 | 1009.8 | ||
| 20260506235016 | 0 | 0.0 | 0.0 | 0.00 | 0.01 | 0.01 | 1009.8 | ||
| 20260506234527 | 0 | 0.0 | 0.0 | 0.00 | 0.01 | 0.01 | 1009.7 | ||
| 20260506234007 | 0 | 0.0 | 0.0 | 0.00 | 0.01 | 0.01 | 1009.6 | ||
| 20260506233507 | 0 | 0.0 | 0.0 | 0.00 | 0.01 | 0.01 | 1009.7 | ||
| 20260506233026 | 0 | 0.0 | 0.0 | 0.00 | 0.01 | 0.01 | 1009.5 | ||
| 20260506232507 | 0 | 0.0 | 0.0 | 0.00 | 0.01 | 0.01 | 1009.4 | ||
| 20260506231529 | 0 | 0.0 | 0.0 | 0.00 | 0.01 | 0.01 | 1009.4 | ||
| 20260506225515 | 0 | 0.0 | 0.0 | 0.00 | 0.01 | 0.01 | 1009.3 | ||
| 20260506225010 | 0 | 0.0 | 0.0 | 0.00 | 0.01 | 0.01 | 1009.3 | ||
| 20260506224526 | 0 | 0.0 | 0.0 | 0.00 | 0.01 | 0.01 | 1009.2 | ||
| 20260506224010 | 0 | 0.0 | 0.0 | 0.00 | 0.01 | 0.01 | 1009.1 | ||
| 20260506223515 | 0 | 0.0 | 0.0 | 0.00 | 0.01 | 0.01 | 1009.2 | ||
| 20260506223027 | 0 | 0.0 | 0.0 | 0.00 | 0.01 | 0.01 | 1009.2 | ||
| 20260506222508 | 0 | 0.0 | 0.0 | 0.00 | 0.01 | 0.01 | 1009.0 | ||
| 20260506222013 | 0 | 0.0 | 0.0 | 0.00 | 0.01 | 0.01 | 1009.2 | ||
| 20260506221526 | 0 | 0.0 | 0.0 | 0.00 | 0.01 | 0.01 | 1009.2 | ||
| 20260506221012 | 0 | 0.0 | 0.0 | 0.00 | 0.01 | 0.01 | 1009.1 | ||
| 20260506220510 | 0 | 0.0 | 0.0 | 0.00 | 0.01 | 0.01 | 1009.0 | ||
| 20260506220035 | 0 | 0.0 | 0.0 | 0.00 | 0.01 | 0.01 | 1009.1 | ||
| 20260506215511 | 0 | 0.0 | 0.0 | 0.00 | 0.01 | 0.01 | 1009.1 | ||
| 20260506215012 | 0 | 0.0 | 0.0 | 0.00 | 0.01 | 0.01 | 1009.2 | ||
| 20260506214528 | 0 | 0.0 | 0.0 | 0.00 | 0.01 | 0.01 | 1009.3 | ||
| 20260506214011 | 0 | 0.0 | 0.0 | 0.00 | 0.01 | 0.01 | 1009.2 | ||
| 20260506213514 | 0 | 0.0 | 0.0 | 0.00 | 0.01 | 0.01 | 1009.3 | ||
| 20260506213031 | 0 | 0.0 | 0.0 | 0.00 | 0.01 | 0.01 | 1009.4 | ||
| 20260506212510 | 0 | 0.0 | 0.0 | 0.00 | 0.01 | 0.01 | 1009.5 | ||
| 20260506212013 | 0 | 0.0 | 0.0 | 0.00 | 0.01 | 0.01 | 1009.3 | ||
| 20260506211528 | 0 | 0.0 | 0.0 | 0.00 | 0.01 | 0.01 | 1009.4 | ||
| 20260506211010 | 0 | 0.0 | 0.0 | 0.00 | 0.01 | 0.01 | 1009.4 | ||
| 20260506210509 | 0 | 0.0 | 0.0 | 0.00 | 0.01 | 0.01 | 1009.4 | ||
| 20260506210033 | 0 | 0.0 | 0.0 | 0.00 | 0.01 | 0.01 | 1009.5 | ||
| 20260506205509 | 0 | 0.0 | 0.0 | 0.00 | 0.01 | 0.01 | 1009.4 | ||
| 20260506205011 | 0 | 0.0 | 0.0 | 0.00 | 0.01 | 0.01 | 1009.6 | ||
| 20260506204545 | 0 | 0.0 | 0.0 | 0.00 | 0.01 | 0.01 | 1009.8 | ||
| 20260506204013 | 0 | 0.0 | 0.0 | 0.00 | 0.01 | 0.01 | 1009.8 | ||
| 20260506203513 | 0 | 0.0 | 0.0 | 0.00 | 0.01 | 0.01 | 1009.8 | ||
| 20260506203030 | 0 | 0.0 | 0.0 | 0.00 | 0.01 | 0.01 | 1009.8 | ||
| 20260506202507 | 0 | 0.0 | 0.0 | 0.00 | 0.01 | 0.01 | 1009.9 | ||
| 20260506202012 | 0 | 0.0 | 0.0 | 0.00 | 0.01 | 0.01 | 1010.0 | ||
| 20260506201532 | 0 | 0.0 | 0.0 | 0.00 | 0.01 | 0.01 | 1010.0 | ||
| 20260506201008 | 0 | 0.0 | 0.0 | 0.00 | 0.01 | 0.01 | 1010.0 | ||
| 20260506200508 | 0 | 0.0 | 0.0 | 0.00 | 0.01 | 0.01 | 1009.9 | ||
| 20260506200028 | 0 | 0.0 | 0.0 | 0.00 | 0.01 | 0.01 | 1009.9 | ||
| 20260506195509 | 0 | 0.0 | 0.0 | 0.00 | 0.01 | 0.01 | 1009.9 | ||
| 20260506195019 | 0 | 0.0 | 0.0 | 0.00 | 0.01 | 0.01 | 1009.8 | ||
| 20260506194526 | 0 | 0.0 | 0.0 | 0.00 | 0.01 | 0.01 | 1009.8 | ||
| 20260506194011 | 0 | 0.0 | 0.0 | 0.00 | 0.01 | 0.01 | 1009.8 | ||
| 20260506193509 | 0 | 0.0 | 0.0 | 0.00 | 0.01 | 0.01 | 1009.9 | ||
| 20260506193028 | 0 | 0.0 | 0.0 | 0.00 | 0.01 | 0.01 | 1010.0 | ||
| 20260506192507 | 0 | 0.0 | 0.0 | 0.00 | 0.01 | 0.01 | 1010.1 | ||
| 20260506192011 | 0 | 0.0 | 0.0 | 0.00 | 0.01 | 0.01 | 1010.2 | ||
| 20260506191528 | 0 | 0.0 | 0.0 | 0.00 | 0.01 | 0.01 | 1010.2 | ||
| 20260506191007 | 0 | 0.0 | 0.0 | 0.00 | 0.01 | 0.01 | 1010.3 | ||
| 20260506190511 | 0 | 0.0 | 0.0 | 0.00 | 0.01 | 0.01 | 1010.3 | ||
| 20260506190028 | 0 | 0.0 | 0.0 | 0.00 | 0.01 | 0.01 | 1010.4 | ||
| 20260506185510 | 0 | 0.0 | 0.0 | 0.00 | 0.01 | 0.01 | 1010.5 | ||
| 20260506185011 | 0 | 0.0 | 0.0 | 0.00 | 0.01 | 0.01 | 1010.7 | ||
| 20260506184527 | 0 | 0.0 | 0.0 | 0.00 | 0.01 | 0.01 | 1010.7 | ||
| 20260506184011 | 0 | 0.0 | 0.0 | 0.00 | 0.01 | 0.01 | 1010.9 | ||
| 20260506183509 | 0 | 0.0 | 0.0 | 0.00 | 0.01 | 0.01 | 1011.0 | ||
| 20260506183026 | 0 | 0.0 | 0.0 | 0.00 | 0.01 | 0.01 | 1011.2 | ||
| 20260506182510 | 0 | 0.0 | 0.0 | 0.00 | 0.01 | 0.01 | 1011.3 | ||
| 20260506182010 | 0 | 0.0 | 0.0 | 0.00 | 0.01 | 0.01 | 87 | 1011.5 | |
| 20260506181529 | 0 | 0.0 | 0.0 | 0.00 | 0.01 | 0.01 | 87 | 1011.6 | |
| 20260506181011 | 0 | 0.0 | 0.0 | 0.00 | 0.01 | 0.01 | 1011.9 | ||
| 20260506180510 | 0 | 0.0 | 0.0 | 0.00 | 0.01 | 0.01 | 1011.9 | ||
| 20260506180027 | 0 | 0.0 | 0.0 | 0.00 | 0.01 | 0.01 | 1011.8 | ||
| 20260506175511 | 0 | 0.0 | 0.0 | 0.00 | 0.01 | 0.01 | 1012.0 | ||
| 20260506175008 | 0 | 0.0 | 0.0 | 0.00 | 0.01 | 0.01 | 1012.1 | ||
| 20260506174528 | 0 | 0.0 | 0.0 | 0.00 | 0.01 | 0.01 | 1012.1 | ||
| 20260506174008 | 0 | 0.0 | 0.0 | 0.00 | 0.01 | 0.01 | 1012.1 | ||
| 20260506173510 | 0 | 0.0 | 0.0 | 0.00 | 0.01 | 0.01 | 1012.2 | ||
| 20260506173028 | 0 | 0.0 | 0.0 | 0.00 | 0.01 | 0.01 | 1012.3 | ||
| 20260506172510 | 0 | 0.0 | 0.0 | 0.00 | 0.01 | 0.01 | 1012.3 | ||
| 20260506172014 | 0 | 0.0 | 0.0 | 0.00 | 0.01 | 0.01 | 1012.4 | ||
| 20260506171537 | 0 | 0.0 | 0.0 | 0.00 | 0.01 | 0.01 | 1012.5 | ||
| 20260506171010 | 0 | 0.0 | 0.0 | 0.00 | 0.01 | 0.01 | 1012.3 | ||
| 20260506170512 | 0 | 0.0 | 0.0 | 0.00 | 0.01 | 0.01 | 1012.3 | ||
| 20260506170029 | 0 | 0.0 | 0.0 | 0.00 | 0.01 | 0.01 | 1012.4 | ||
| 20260506165508 | 0 | 0.0 | 0.0 | 0.00 | 0.01 | 0.01 | 1012.4 | ||
| 20260506165007 | 0 | 0.0 | 0.0 | 0.00 | 0.01 | 0.01 | 1012.2 | ||
| 20260506164527 | 0 | 0.0 | 0.0 | 0.00 | 0.01 | 0.01 | 1012.0 | ||
| 20260506163516 | 0 | 0.0 | 0.0 | 0.00 | 0.01 | 0.01 | 1011.9 | ||
| 20260506163027 | 0 | 0.0 | 0.0 | 0.00 | 0.01 | 0.01 | 1012.0 | ||
| 20260506162512 | 0 | 0.0 | 0.0 | 0.00 | 0.01 | 0.01 | 1012.1 | ||
| 20260506162015 | 0 | 0.0 | 0.0 | 0.00 | 0.01 | 0.01 | 1011.9 | ||
| 20260506161537 | 0 | 0.0 | 0.0 | 0.00 | 0.01 | 0.01 | 1011.9 | ||
| 20260506161010 | 0 | 0.0 | 0.0 | 0.00 | 0.01 | 0.01 | 1011.8 | ||
| 20260506160513 | 0 | 0.0 | 0.0 | 0.00 | 0.01 | 0.01 | 1011.9 | ||
| 20260506160041 | 0 | 0.0 | 0.0 | 0.00 | 0.01 | 0.01 | 1012.1 | ||
| 20260506155509 | 0 | 0.0 | 0.0 | 0.00 | 0.01 | 0.01 | 1011.9 | ||
| 20260506155012 | 0 | 0.0 | 0.0 | 0.00 | 0.01 | 0.01 | 1011.7 | ||
| 20260506154531 | 0 | 0.0 | 0.0 | 0.00 | 0.01 | 0.01 | 1011.8 | ||
| 20260506154012 | 0 | 0.0 | 0.0 | 0.00 | 0.01 | 0.01 | 1011.7 | ||
| 20260506153028 | 0 | 0.0 | 0.0 | 0.00 | 0.01 | 0.01 | 1011.9 | ||
| 20260506152012 | 0 | 0.0 | 0.0 | 0.00 | 0.01 | 0.01 | 1011.8 | ||
| 20260506151534 | 0 | 0.0 | 0.0 | 0.00 | 0.01 | 0.01 | 1011.8 | ||
| 20260506151013 | 0 | 0.0 | 0.0 | 0.00 | 0.01 | 0.01 | 1011.7 | ||
| 20260506150516 | 0 | 0.0 | 0.0 | 0.00 | 0.01 | 0.01 | 1011.5 | ||
| 20260506150031 | 0 | 0.0 | 0.0 | 0.00 | 0.01 | 0.01 | 1011.6 | ||
| 20260506145512 | 0 | 0.0 | 0.0 | 0.00 | 0.01 | 0.01 | 1011.4 | ||
| 20260506145012 | 0 | 0.0 | 0.0 | 0.00 | 0.01 | 0.01 | 1011.3 | ||
| 20260506144530 | 0 | 0.0 | 0.0 | 0.00 | 0.01 | 0.01 | 1011.3 | ||
| 20260506144018 | 0 | 0.0 | 0.0 | 0.00 | 0.01 | 0.01 | 1011.2 | ||
| 20260506143517 | 0 | 0.0 | 0.0 | 0.00 | 0.01 | 0.01 | 1011.4 | ||
| 20260506143041 | 0 | 0.0 | 0.0 | 0.00 | 0.01 | 0.01 | 1011.3 | ||
| 20260506141529 | 0 | 0.0 | 0.0 | 0.00 | 0.01 | 0.01 | 1011.3 | ||
| 20260506141008 | 0 | 0.0 | 0.0 | 0.00 | 0.01 | 0.01 | 1011.2 | ||
| 20260506140511 | 0 | 0.0 | 0.0 | 0.00 | 0.01 | 0.01 | 1011.2 | ||
| 20260506140033 | 0 | 0.0 | 0.0 | 0.00 | 0.01 | 0.01 | 1011.3 | ||
| 20260506135511 | 0 | 0.0 | 0.0 | 0.00 | 0.01 | 0.01 | 1011.3 | ||
| 20260506135009 | 0 | 0.0 | 0.0 | 0.00 | 0.01 | 0.01 | 1011.2 | ||
| 20260506134528 | 0 | 0.0 | 0.0 | 0.00 | 0.01 | 0.01 | 1011.2 |